Location: B�rgermoos
(47.6500°N, 9.0667°E)
Time: 04:47:22
(UTC+00:00)

Meteor 2-9 Rocket - Pass Details

Date: 18 September 2020
Orbit: 791 x 896 km, 81.3° (Epoch: 27 October)

Event Time Altitude Azimuth Distance (km) Brightness Sun altitude
Rises 17:50:29 0° 174° (S) 3,498 7.3 -4.4°
Reaches altitude 10° 17:52:59 10° 169° (S) 2,561 6.5 -4.8°
Maximum altitude 17:58:38 53° 95° (E) 1,088 4.5 -5.8°
Drops below altitude 10° 18:04:16 10° 20° (NNE) 2,545 6.6 -6.7°
Sets 18:06:44 0° 16° (NNE) 3,475 7.3 -7.1°
